• In Austria
  • List of Countries
  • For 7 days
  • Water Temperature
  • Satellite Maps
  • Weather Map
  • News
  • Weather Widgets
  • user-avatar
    Login

    Hourly Weather Kyrdzhali

    Today, 12 December, Tuesday

    Time Temperature Precipitation Wind Pressure Humidity
    00:00 +4°C° 0 mm 3 mps 729 mmHg 68%
    01:00 +4°C° 0 mm 3 mps 729 mmHg 68%
    02:00 +5°C° 0 mm 2 mps 729 mmHg 68%
    03:00 +5°C° 0 mm 2 mps 729 mmHg 68%
    04:00 +5°C° 0 mm 2 mps 729 mmHg 68%
    05:00 +4°C° 0 mm 2 mps 729 mmHg 68%
    06:00 +4°C° 0 mm 2 mps 729 mmHg 68%
    07:00 +4°C° 0 mm 2 mps 729 mmHg 69%
    08:00 +4°C° 0 mm 2 mps 729 mmHg 69%
    09:00 +7°C° 0 mm 2 mps 730 mmHg 64%
    10:00 +9°C° 0 mm 2 mps 730 mmHg 59%
    11:00 +12°C° 0 mm 2 mps 730 mmHg 54%
    12:00 +12°C° 0 mm 2 mps 730 mmHg 53%
    13:00 +13°C° 0 mm 2 mps 730 mmHg 53%
    14:00 +14°C° 0 mm 2 mps 730 mmHg 52%
    15:00 +12°C° 0 mm 2 mps 730 mmHg 59%
    16:00 +10°C° 0 mm 2 mps 730 mmHg 66%
    17:00 +8°C° 0 mm 2 mps 730 mmHg 73%
    18:00 +8°C° 0 mm 2 mps 730 mmHg 75%
    19:00 +9°C° 0 mm 1 mps 730 mmHg 77%
    20:00 +8°C° 0 mm 1 mps 730 mmHg 79%
    21:00 +8°C° 0 mm 1 mps 730 mmHg 78%
    22:00 +8°C° 0 mm 1 mps 730 mmHg 78%
    23:00 +8°C° 0 mm 1 mps 730 mmHg 78%

    Tomorrow, 13 December, Wednesday

    Time Temperature Precipitation Wind Pressure Humidity
    00:00 +8°C° 0 mm 1 mps 730 mmHg 78%
    01:00 +8°C° 0 mm 1 mps 730 mmHg 78%
    02:00 +8°C° 0 mm 1 mps 730 mmHg 78%
    03:00 +7°C° 0 mm 1 mps 729 mmHg 78%
    04:00 +7°C° 0 mm 1 mps 729 mmHg 79%
    05:00 +7°C° 0 mm 1 mps 729 mmHg 80%
    06:00 +7°C° 0 mm 1 mps 729 mmHg 80%
    07:00 +7°C° 0 mm 1 mps 729 mmHg 80%
    08:00 +7°C° 0 mm 1 mps 729 mmHg 80%
    09:00 +9°C° 0 mm 1 mps 730 mmHg 74%
    10:00 +11°C° 0 mm 1 mps 730 mmHg 67%
    11:00 +13°C° 0 mm 1 mps 730 mmHg 61%
    12:00 +14°C° 0 mm 1 mps 729 mmHg 59%
    13:00 +14°C° 0 mm 2 mps 729 mmHg 57%
    14:00 +15°C° 0 mm 2 mps 729 mmHg 56%
    15:00 +13°C° 0 mm 2 mps 728 mmHg 62%
    16:00 +12°C° 0 mm 1 mps 728 mmHg 69%
    17:00 +11°C° 0 mm 1 mps 728 mmHg 75%
    18:00 +10°C° 0 mm 1 mps 728 mmHg 77%
    19:00 +10°C° 0 mm 1 mps 727 mmHg 78%
    20:00 +9°C° 0 mm 1 mps 727 mmHg 79%
    21:00 +9°C° 0 mm 1 mps 727 mmHg 79%
    22:00 +9°C° 0 mm 1 mps 727 mmHg 78%
    23:00 +9°C° 0 mm 1 mps 727 mmHg 78%

    Day after tomorrow, 14 December, Thursday

    Time Temperature Precipitation Wind Pressure Humidity
    00:00 +9°C° 0 mm 1 mps 726 mmHg 78%
    01:00 +9°C° 0 mm 1 mps 726 mmHg 78%
    02:00 +9°C° 0 mm 1 mps 726 mmHg 78%
    03:00 +9°C° 0 mm 1 mps 726 mmHg 79%
    04:00 +9°C° 0 mm 1 mps 725 mmHg 79%
    05:00 +9°C° 0 mm 1 mps 725 mmHg 80%
    06:00 +9°C° 0 mm 1 mps 725 mmHg 81%
    07:00 +9°C° 0 mm 1 mps 725 mmHg 82%
    08:00 +9°C° 0 mm 1 mps 725 mmHg 83%
    09:00 +10°C° 0 mm 1 mps 726 mmHg 77%
    10:00 +10°C° 0 mm 0 mps 726 mmHg 72%
    11:00 +12°C° 0 mm 0 mps 726 mmHg 67%
    12:00 +13°C° 0 mm 1 mps 726 mmHg 64%
    13:00 +14°C° 0 mm 1 mps 725 mmHg 61%
    14:00 +14°C° 0 mm 1 mps 725 mmHg 59%
    15:00 +13°C° 0 mm 1 mps 725 mmHg 64%
    16:00 +12°C° 0 mm 1 mps 725 mmHg 70%
    17:00 +11°C° 0 mm 1 mps 725 mmHg 75%
    18:00 +10°C° 0 mm 1 mps 725 mmHg 78%
    19:00 +10°C° 0 mm 1 mps 725 mmHg 80%
    20:00 +9°C° 0 mm 1 mps 725 mmHg 82%
    21:00 +9°C° 0 mm 1 mps 725 mmHg 84%
    22:00 +9°C° 0 mm 1 mps 725 mmHg 85%
    23:00 +8°C° 0 mm 1 mps 725 mmHg 87%

    15 December, Friday

    Time Temperature Precipitation Wind Pressure Humidity
    00:00 +8°C° 0 mm 1 mps 725 mmHg 87%
    01:00 +8°C° 0 mm 1 mps 724 mmHg 87%
    02:00 +7°C° 0 mm 1 mps 724 mmHg 87%
    03:00 +7°C° 0 mm 1 mps 724 mmHg 85%
    04:00 +7°C° 0 mm 1 mps 724 mmHg 84%
    05:00 +7°C° 0 mm 1 mps 724 mmHg 82%
    06:00 +7°C° 0 mm 1 mps 724 mmHg 81%
    07:00 +7°C° 0 mm 1 mps 724 mmHg 80%
    08:00 +7°C° 0 mm 1 mps 725 mmHg 78%
    09:00 +8°C° 0 mm 2 mps 725 mmHg 72%
    10:00 +10°C° 0 mm 2 mps 725 mmHg 65%
    11:00 +12°C° 0 mm 2 mps 725 mmHg 59%
    12:00 +12°C° 0 mm 3 mps 725 mmHg 57%
    13:00 +13°C° 0 mm 3 mps 724 mmHg 55%
    14:00 +13°C° 0 mm 3 mps 724 mmHg 53%
    15:00 +12°C° 0 mm 3 mps 724 mmHg 60%
    16:00 +11°C° 0 mm 3 mps 724 mmHg 67%
    17:00 +9°C° 0 mm 3 mps 724 mmHg 74%
    18:00 +9°C° 0 mm 3 mps 724 mmHg 76%
    19:00 +9°C° 0 mm 3 mps 724 mmHg 77%
    20:00 +8°C° 0 mm 3 mps 724 mmHg 79%
    21:00 +8°C° 0 mm 3 mps 723 mmHg 79%
    22:00 +8°C° 0 mm 3 mps 723 mmHg 80%
    23:00 +7°C° 0 mm 4 mps 723 mmHg 80%

    16 December, Saturday

    Time Temperature Precipitation Wind Pressure Humidity
    00:00 +8°C° 0 mm 4 mps 723 mmHg 81%
    01:00 +8°C° 0 mm 4 mps 723 mmHg 83%
    02:00 +8°C° 0 mm 4 mps 722 mmHg 84%
    03:00 +8°C° 0 mm 4 mps 722 mmHg 85%
    04:00 +8°C° 0 mm 4 mps 722 mmHg 87%
    05:00 +8°C° 0 mm 4 mps 722 mmHg 88%
    06:00 +8°C° 0 mm 4 mps 722 mmHg 88%
    07:00 +10°C° 0 mm 4 mps 722 mmHg 88%
    08:00 +10°C° 0 mm 4 mps 723 mmHg 88%
    09:00 +10°C° 0 mm 5 mps 723 mmHg 83%
    10:00 +12°C° 0 mm 5 mps 723 mmHg 77%
    11:00 +13°C° 0 mm 6 mps 723 mmHg 72%
    12:00 +13°C° 0 mm 6 mps 723 mmHg 70%
    13:00 +14°C° 0 mm 6 mps 722 mmHg 69%
    14:00 +14°C° 0 mm 6 mps 722 mmHg 67%
    15:00 +13°C° 0 mm 6 mps 722 mmHg 72%
    16:00 +13°C° 0 mm 5 mps 722 mmHg 77%
    17:00 +12°C° 0 mm 4 mps 722 mmHg 82%
    18:00 +12°C° 0 mm 4 mps 722 mmHg 83%
    19:00 +11°C° 0 mm 4 mps 722 mmHg 85%
    20:00 +11°C° 0 mm 4 mps 723 mmHg 87%
    21:00 +11°C° 0.1 mm 4 mps 723 mmHg 87%
    22:00 +11°C° 0.1 mm 4 mps 723 mmHg 87%
    23:00 +11°C° 0.1 mm 4 mps 723 mmHg 87%

    17 December, Sunday

    Time Temperature Precipitation Wind Pressure Humidity
    00:00 +11°C° 0.1 mm 4 mps 723 mmHg 87%
    01:00 +11°C° 0.1 mm 4 mps 723 mmHg 87%
    02:00 +11°C° 0.1 mm 4 mps 723 mmHg 87%
    03:00 +11°C° 0.1 mm 4 mps 723 mmHg 87%
    04:00 +10°C° 0.1 mm 4 mps 723 mmHg 87%
    05:00 +10°C° 0.1 mm 4 mps 723 mmHg 87%
    06:00 +10°C° 0.4 mm 3 mps 723 mmHg 88%
    07:00 +10°C° 0.4 mm 3 mps 723 mmHg 89%
    08:00 +9°C° 0.4 mm 2 mps 724 mmHg 90%
    09:00 +9°C° 1.6 mm 2 mps 724 mmHg 90%
    10:00 +9°C° 1.6 mm 2 mps 724 mmHg 90%
    11:00 +8°C° 1.6 mm 2 mps 724 mmHg 90%
    12:00 +8°C° 1.9 mm 2 mps 723 mmHg 90%
    13:00 +7°C° 1.9 mm 2 mps 723 mmHg 90%
    14:00 +7°C° 1.9 mm 3 mps 723 mmHg 89%
    15:00 +6°C° 2 mm 2 mps 723 mmHg 89%
    16:00 +6°C° 2 mm 2 mps 723 mmHg 89%
    17:00 +6°C° 2 mm 2 mps 723 mmHg 89%
    18:00 +6°C° 1.2 mm 2 mps 723 mmHg 89%
    19:00 +6°C° 1.2 mm 2 mps 724 mmHg 89%
    20:00 +6°C° 1.2 mm 2 mps 724 mmHg 89%
    21:00 +6°C° 0.5 mm 2 mps 724 mmHg 89%
    22:00 +6°C° 0.5 mm 2 mps 724 mmHg 88%
    23:00 +5°C° 0.5 mm 2 mps 724 mmHg 88%
    Show more